Home   Weather   Mesa   Past weeks

Flag for USA Past Weather in Mesa, Arizona, USA — Yesterday and Last 2 Weeks

82 °F


Feels Like: 81 °F
Forecast: 71 / 97 °F
Wind: 6 mph from North

Location: Phoenix–Mesa Gateway Airport

Current Time: Oct 26, 2016 at 8:22:56 PM

Latest Report: Oct 26, 2016 at 7:50 PM

Visibility: 20 mi

Pressure: 29.95 "Hg

Humidity: 26%

Dew Point: 45 °F

Location of MesaLocation

Past Weather in Mesa — Graph


Mesa Temperature Yesterday

Maximum temperature yesterday: 90 °F (at 1:47 PM)
Minimum temperature yesterday: 66 °F (at 6:47 AM)
Average temperature yesterday: 76 °F

High & Low Weather Summary for the Past Weeks

High97 °F (Oct 20, 1:48 PM)64% (Oct 25, 6:47 AM)30.10 "Hg (Oct 25, 6:47 AM)
Low55 °F (Oct 20, 4:47 AM)8% (Oct 20, 1:48 PM)29.79 "Hg (Oct 17, 5:48 PM)
Average73 °F29%29.95 "Hg
* Reported Oct 11 5:47 PM — Oct 26 5:49 PM, Mesa, Weather by CustomWeather, © 2016

Note: Actual official high and low records may vary slightly from our data, if they occured in-between our weather recording intervals... More about our weather records


Mesa Weather History for the Previous 24 Hours

Scroll right to see more
Time TempWeatherWind HumidityBarometerVisibility
5:49 PM
Wed, Oct 26
90 °FPassing clouds.6 mph22%29.93 "Hg20 mi
3:51 PM93 °FPassing clouds.No wind20%29.94 "Hg45 mi
2:49 PM93 °FPassing clouds.No wind19%29.96 "Hg45 mi
1:47 PM91 °FPassing clouds.3 mph23%29.97 "Hg35 mi
12:47 PM88 °FPassing clouds.No wind25%30.01 "Hg35 mi
11:47 AM86 °FScattered clouds.3 mph27%30.05 "Hg45 mi
10:47 AM82 °FScattered clouds.3 mph32%30.08 "Hg45 mi
9:50 AM79 °FScattered clouds.5 mph37%30.09 "Hg45 mi
8:50 AM75 °FPassing clouds.3 mph41%30.09 "Hg35 mi
7:53 AM72 °FScattered clouds.5 mph44%30.08 "Hg45 mi
6:47 AM64 °FScattered clouds.6 mph52%30.06 "Hg45 mi
5:53 AM66 °FClear.5 mph49%30.05 "Hg20 mi
4:47 AM68 °FClear.6 mph46%30.03 "Hg20 mi
4:35 AM66 °FClear.6 mph49%30.03 "Hg10 mi
4:15 AM66 °FClear.7 mph49%30.02 "Hg10 mi
3:55 AM66 °FClear.7 mph46%30.02 "Hg10 mi
3:35 AM64 °FClear.3 mph49%30.02 "Hg10 mi
3:15 AM64 °FClear.8 mph49%30.02 "Hg10 mi
2:55 AM66 °FClear.8 mph46%30.03 "Hg10 mi
2:35 AM66 °FClear.7 mph46%30.03 "Hg10 mi
2:15 AM68 °FClear.6 mph46%30.03 "Hg10 mi
1:55 AM68 °FClear.6 mph43%30.03 "Hg10 mi
1:35 AM68 °FClear.5 mph46%30.03 "Hg10 mi
1:15 AM68 °FClear.5 mph46%30.03 "Hg10 mi
12:55 AM68 °FClear.3 mph46%30.03 "Hg10 mi
12:35 AM68 °FClear.3 mph49%30.02 "Hg10 mi
12:15 AM68 °FClear.No wind46%30.02 "Hg10 mi
11:50 PM
Tue, Oct 25
72 °FClear.3 mph44%30.02 "Hg20 mi
10:56 PM73 °FClear.3 mph41%30.02 "Hg20 mi
9:47 PM77 °FClear.3 mph36%30.01 "Hg20 mi
8:47 PM79 °FClear.7 mph34%30.00 "Hg20 mi
Weather by CustomWeather, © 2016

See weather overviewHow to use our weather pages